STARLINK-1266, 45383

Orbit data source: Space-Track

STARLINK-1266, 45383 is a payload satellite owned by SpaceX/Seattle (US) in LEO that was launched on Wed, 18 Mar 2020 UTC via an FALCON 9 launch vehicle from the Air Force Eastern Test Range (AFETR). Payload-class satellites include a variety of spacecraft equipped with specific instruments for various scientific and technological missions. These include communications satellites like Starlink; space stations such as the ISS; scientific satellites like the Hubble; Earth observation satellites from companies like Planet Labs, Umbra, and HawkEye 360; GPS; miniature CubeSats for education and research; and military/defense satellites.

Loading next visibility...
Identifier
45383, 2020-019Z
Orbit
LEO
Country
Flag of USUS
Related business
Manufacturer
SpaceX/Seattle
Mission
Partially operational Commercial Communications
Bus & Motor
STARLINK, Unknown motor
Mass
260 kg wet, ~248 kg dry
Launch date (UTC)
2020-03-18 (7 years ago)
Launch vehicle
FALCON 9
Launch site
Air Force Eastern Test Range (AFETR)
Object type
Payload
Rocket body
Debris
Shape & HBR
Box + 1 Pan, 10.1 m
Radar Cross Section
13.562 m², Large (>1 m²)

Expand to show TLE details & history
Last TLE update: 16 hours ago

TLE from 16 hours ago
0 STARLINK-1266
1 45383U 20019Z   26263.56292281  .00063395  00000-0  38545-3 0  9993
2 45383  53.0397 259.3859 0002071  49.6906 310.4294 15.76900066360672
Epoch: 2026-09-20T13:30Z
TLE epoch observation values (Epoch: 2026-09-20T13:30:36.530Z)
Latitude
-0.00005°
Longitude
57.27834°
Altitude
339.232 km
Speed
7.707 km/s
True Right ascension
17h 17m 32s
True Declination
0° 00' 00"
Sunlit
Object was in daylight at epoch
Visualization orbit readout
Latitude
Unknown
Longitude
Unknown
Altitude
Unknown
Speed
Unknown
Apparent Right ascension
Unknown
Apparent Declination
Unknown
Sunlit
N/A
Visualization observer readout
Local Sidereal Time
22:06:59
Azimuth
Unknown
Elevation
Unknown
Doppler factor
Unknown
Orbital elements
Apogee altitude
340.902 km
Perigee altitude
338.12 km
Semi-major axis
6,717.648 km
Eccentricity
0.00021
Inclination
53.0397°
RAAN
259.3859°
Arg. of periapsis
49.6906°
True anomaly
310.41133°
Mean anomaly
310.4294°
Eccentric anomaly
310.42037°
Mean motion
3.94201 °/min
Orbital period
91.32 mins
BSTAR
0.00038545
Loading maneuver chart data...
Computing Atmospheric mass density...

Documentation

Showing up to 5 results
|